Crane, MT

10:19 PM MST on February 06, 2016 (GMT -0700)
Sidney-Richland Municipal

Weather History for KSDY - October, 2012

Change the Weather History Date:

Tuesday, October 2, 2012

  Actual Average Record
Temperature  
Mean Temperature 60 °F -  
Max Temperature 71 °F 66 °F 91 °F (1997)
Min Temperature 48 °F 40 °F 21 °F (1999)
Degree Days  
Heating Degree Days 6    
Growing Degree Days 10 (Base 50)    
Moisture  
Dew Point 35 °F    
Average Humidity 42    
Maximum Humidity 66    
Minimum Humidity 27    
Precipitation  
Precipitation 0.00 in - - ()
Sea Level Pressure  
Sea Level Pressure 29.76 in    
Wind  
Wind Speed 11 mph (NW)    
Max Wind Speed 16 mph    
Max Gust Speed 25 mph    
Visibility 10 miles    
Events      
Averages and records for this station are not official NWS values.
T = Trace of Precipitation, MM = Missing Value Source: NWS Daily Summary

Daily Weather History Graph

Daily Weather History Graph

Search for Another Location

Airport or City:

Trip Planner

Search our weather history database for the weather conditions in past years. The results will help you decide how hot, cold, wet, or windy it might be!

Date:

Astronomy

Oct. 02, 2012 Rise Set
Actual Time 6:57 AM MDT 6:32 PM MDT
Civil Twilight 6:27 AM MDT 7:03 PM MDT
Nautical Twilight 5:51 AM MDT 7:39 PM MDT
Astronomical Twilight 5:14 AM MDT 8:15 PM MDT
Moon 7:31 PM MDT (10/2) 9:42 AM MDT (10/2)
Length of Visible Light 12h 36m
Length of Day
11h 34m
Waning Gibbous, 94% of the Moon is Illuminated
Oct 2
Waning Gibbous
Oct 8
Last Quarter
Oct 15
New
Oct 21
First Quarter
Oct 29
Full

Hourly Weather History & Observations

Time (MDT) Temp. Dew Point Humidity Pressure Visibility Wind Dir Wind Speed Gust Speed Precip Events Conditions
12:15 AM 51.8 °F 32.0 °F 47% 29.73 in 10.0 mi SSW 9.2 mph - N/A   Clear
12:35 AM 50.0 °F 32.0 °F 50% 29.72 in 10.0 mi SSW 10.4 mph - N/A   Clear
12:55 AM 51.8 °F 32.0 °F 47% 29.71 in 10.0 mi SSW 10.4 mph - N/A   Clear
1:15 AM 51.8 °F 32.0 °F 47% 29.71 in 10.0 mi SSW 11.5 mph - N/A   Clear
1:35 AM 53.6 °F 32.0 °F 44% 29.70 in 10.0 mi SSW 9.2 mph - N/A   Clear
1:55 AM 53.6 °F 30.2 °F 41% 29.69 in 10.0 mi SSW 9.2 mph - N/A   Clear
2:15 AM 53.6 °F 30.2 °F 41% 29.68 in 10.0 mi SSW 11.5 mph - N/A   Clear
2:35 AM 55.4 °F 30.2 °F 38% 29.67 in 10.0 mi SSW 11.5 mph - N/A   Clear
2:55 AM 53.6 °F 30.2 °F 41% 29.66 in 10.0 mi SSW 12.7 mph - N/A   Clear
3:15 AM 55.4 °F 30.2 °F 38% 29.65 in 10.0 mi SSW 13.8 mph - N/A   Clear
3:35 AM 55.4 °F 30.2 °F 38% 29.65 in 10.0 mi SSW 15.0 mph - N/A   Clear
3:55 AM 55.4 °F 30.2 °F 38% 29.65 in 10.0 mi SSW 13.8 mph - N/A   Clear
4:35 AM 53.6 °F 30.2 °F 41% 29.65 in 10.0 mi SSW 12.7 mph - N/A   Clear
4:55 AM 51.8 °F 30.2 °F 44% 29.65 in 10.0 mi SSW 11.5 mph - N/A   Clear
5:15 AM 51.8 °F 32.0 °F 47% 29.66 in 10.0 mi SSW 5.8 mph - N/A   Clear
5:35 AM 50.0 °F 32.0 °F 50% 29.66 in 10.0 mi SW 6.9 mph - N/A   Clear
5:55 AM 48.2 °F 32.0 °F 54% 29.67 in 10.0 mi Calm Calm - N/A   Clear
6:15 AM 48.2 °F 32.0 °F 54% 29.68 in 10.0 mi Calm Calm - N/A   Clear
6:35 AM 48.2 °F 32.0 °F 54% 29.68 in 10.0 mi South 8.1 mph - N/A   Clear
6:55 AM 57.2 °F 37.4 °F 48% 29.68 in 10.0 mi West 11.5 mph - N/A   Clear
7:15 AM 57.2 °F 33.8 °F 41% 29.69 in 10.0 mi WNW 9.2 mph - N/A   Clear
7:35 AM 55.4 °F 33.8 °F 44% 29.69 in 10.0 mi WNW 10.4 mph - N/A   Clear
7:55 AM 55.4 °F 33.8 °F 44% 29.70 in 10.0 mi NW 10.4 mph - N/A   Clear
8:15 AM 55.4 °F 35.6 °F 47% 29.71 in 10.0 mi WNW 6.9 mph - N/A   Clear
8:35 AM 55.4 °F 37.4 °F 51% 29.73 in 10.0 mi NNW 4.6 mph - N/A   Clear
8:55 AM 57.2 °F 37.4 °F 48% 29.73 in 10.0 mi WNW 5.8 mph - N/A   Clear
9:15 AM 59.0 °F 39.2 °F 48% 29.73 in 10.0 mi NW 5.8 mph - N/A   Clear
9:35 AM 60.8 °F 39.2 °F 45% 29.75 in 10.0 mi NW 10.4 mph - N/A   Clear
9:55 AM 60.8 °F 39.2 °F 45% 29.74 in 10.0 mi NNW 12.7 mph - N/A   Clear
10:15 AM 62.6 °F 39.2 °F 42% 29.75 in 10.0 mi NW 15.0 mph 19.6 mph N/A   Clear
10:35 AM 62.6 °F 39.2 °F 42% 29.76 in 10.0 mi NW 16.1 mph 21.9 mph N/A   Clear
10:55 AM 64.4 °F 39.2 °F 40% 29.76 in 10.0 mi NW 16.1 mph 23.0 mph N/A   Clear
11:15 AM 64.4 °F 39.2 °F 40% 29.76 in 10.0 mi NNW 13.8 mph 21.9 mph N/A   Clear
11:35 AM 64.4 °F 39.2 °F 40% 29.77 in 10.0 mi NW 16.1 mph - N/A   Clear
11:55 AM 66.2 °F 39.2 °F 37% 29.78 in 10.0 mi NW 10.4 mph 16.1 mph N/A   Clear
12:15 PM 66.2 °F 37.4 °F 35% 29.77 in 10.0 mi NNW 11.5 mph - N/A   Clear
12:35 PM 68.0 °F 39.2 °F 35% 29.77 in 10.0 mi NW 8.1 mph 16.1 mph N/A   Clear
1:15 PM 69.8 °F 39.2 °F 33% 29.76 in 10.0 mi NW 15.0 mph 18.4 mph N/A   Clear
1:35 PM 69.8 °F 39.2 °F 33% 29.76 in 10.0 mi WNW 16.1 mph 19.6 mph N/A   Clear
1:55 PM 69.8 °F 37.4 °F 31% 29.76 in 10.0 mi WNW 13.8 mph 19.6 mph N/A   Clear
2:15 PM 71.6 °F 37.4 °F 29% 29.76 in 10.0 mi WNW 16.1 mph 20.7 mph N/A   Clear
2:35 PM 71.6 °F 37.4 °F 29% 29.76 in 10.0 mi West 13.8 mph 18.4 mph N/A   Clear
2:55 PM 71.6 °F 37.4 °F 29% 29.76 in 10.0 mi NNW 12.7 mph 24.2 mph N/A   Clear
3:15 PM 71.6 °F 37.4 °F 29% 29.76 in 10.0 mi NW 13.8 mph 20.7 mph N/A   Clear
3:35 PM 71.6 °F 37.4 °F 29% 29.77 in 10.0 mi WNW 13.8 mph 25.3 mph N/A   Clear
3:55 PM 71.6 °F 37.4 °F 29% 29.77 in 10.0 mi NW 15.0 mph 20.7 mph N/A   Clear
4:15 PM 71.6 °F 35.6 °F 27% 29.77 in 10.0 mi West 12.7 mph - N/A   Scattered Clouds
4:35 PM 71.6 °F 35.6 °F 27% 29.78 in 10.0 mi NW 15.0 mph 19.6 mph N/A   Partly Cloudy
4:55 PM 71.6 °F 35.6 °F 27% 29.78 in 10.0 mi WNW 12.7 mph 16.1 mph N/A   Clear
5:15 PM 69.8 °F 35.6 °F 28% 29.79 in 10.0 mi NW 15.0 mph 20.7 mph N/A   Clear
5:35 PM 69.8 °F 35.6 °F 28% 29.79 in 10.0 mi NW 11.5 mph - N/A   Clear
6:15 PM 64.4 °F 35.6 °F 34% 29.80 in 10.0 mi NNW 6.9 mph - N/A   Clear
6:35 PM 62.6 °F 33.8 °F 34% 29.80 in 10.0 mi NNW 6.9 mph - N/A   Clear
6:55 PM 60.8 °F 33.8 °F 36% 29.80 in 10.0 mi North 6.9 mph - N/A   Clear
7:15 PM 57.2 °F 33.8 °F 41% 29.81 in 10.0 mi NNW 8.1 mph - N/A   Clear
7:35 PM 59.0 °F 33.8 °F 39% 29.82 in 10.0 mi North 10.4 mph - N/A   Clear
7:55 PM 59.0 °F 33.8 °F 39% 29.82 in 10.0 mi North 12.7 mph - N/A   Clear
8:35 PM 55.4 °F 35.6 °F 47% 29.85 in 10.0 mi North 9.2 mph - N/A   Clear
8:55 PM 55.4 °F 35.6 °F 47% 29.85 in 10.0 mi NNE 8.1 mph - N/A   Clear
9:15 PM 53.6 °F 35.6 °F 51% 29.86 in 10.0 mi North 9.2 mph - N/A   Clear
9:35 PM 53.6 °F 35.6 °F 51% 29.87 in 10.0 mi North 10.4 mph - N/A   Mostly Cloudy
9:55 PM 53.6 °F 35.6 °F 51% 29.88 in 10.0 mi North 10.4 mph - N/A   Mostly Cloudy
10:15 PM 53.6 °F 37.4 °F 54% 29.89 in 10.0 mi North 10.4 mph - N/A   Scattered Clouds
10:35 PM 53.6 °F 35.6 °F 51% 29.91 in 10.0 mi North 10.4 mph - N/A   Scattered Clouds
10:55 PM 51.8 °F 37.4 °F 58% 29.90 in 10.0 mi NNE 12.7 mph - N/A   Overcast
11:15 PM 51.8 °F 37.4 °F 58% 29.93 in 10.0 mi North 12.7 mph - N/A   Mostly Cloudy
11:35 PM 51.8 °F 35.6 °F 54% 29.96 in 9.0 mi North 11.5 mph - N/A   Mostly Cloudy
11:55 PM 48.2 °F 37.4 °F 66% 29.94 in 10.0 mi NNE 11.5 mph - N/A   Overcast